Regional Weather Roundup
Issued by NWS

Home | Current Version | Previous Version | Graphics & Text | Print | Product List | Glossary On
Versions: 1 2 3 4 5 6 7 8 9 10 11 12 13 14 15 16 17 18 19 20 21 22 23 24 25 26 27 28 29 30 31 32 33 34 35 36 37 38 39 40 41 42 43 44 45 46 47 48 49 50
000
ASUS43 KLMK 070202
RWRKY
KENTUCKY REGIONAL WEATHER ROUNDUP
NATIONAL WEATHER SERVICE LOUISVILLE KY
1000 PM EDT WED MAY 06 2015

NOTE "FAIR" INDICATES FEW OR NO CLOUDS BELOW 12,000 FEET
WITH NO SIGNIFICANT WEATHER AND/OR OBSTRUCTIONS TO VISIBILITY.

KYZ001>023-026-027-061>063-070>075-070300-
WESTERN AND SOUTH CENTRAL KENTUCKY

CITY           SKY/WX    TMP DP  RH WIND       PRES   REMARKS
PADUCAH        CLEAR     69  57  65 SE3       30.05R
HENDERSON      CLEAR     72  54  53 CALM      30.06R
OWENSBORO      CLEAR     73  60  63 CALM      30.08R
HOPKINSVILLE   NOT AVBL
BOWLING GREEN  CLEAR     71  59  65 CALM      30.09R
GLASGOW        NOT AVBL
$$

KYZ024-025-028>034-038-045-046-053-070300-
NORTH CENTRAL KENTUCKY

CITY           SKY/WX    TMP DP  RH WIND       PRES   REMARKS
LOUISVILLE/SDF PTCLDY    80  55  42 E3        30.09R
LOUISVILLE/LOU CLEAR     74  58  57 CALM      30.10R
FORT KNOX      CLEAR     68  58  69 CALM      30.08R
$$

KYZ035>037-039>044-047>052-055>060-089>105-070300-
NORTHEAST KENTUCKY

CITY           SKY/WX    TMP DP  RH WIND       PRES   REMARKS
LEXINGTON      CLEAR     71  56  58 NE5       30.12R
COVINGTON      CLEAR     72  54  53 CALM      30.12R
FRANKFORT      CLEAR     68  57  68 CALM      30.10R
$$

KYZ054-064>069-076>088-106>120-070300-
SOUTHEAST KENTUCKY

CITY           SKY/WX    TMP DP  RH WIND       PRES   REMARKS
JACKSON        PTCLDY    73  53  49 SE9       30.15R
LONDON         CLEAR     68  55  63 CALM      30.12R
SOMERSET       NOT AVBL
MIDDLESBORO    CLOUDY    67  59  75 CALM      30.14R
MONTICELLO     CLEAR     64  59  84 CALM      30.14R HAZE
$$




USA.gov is the U.S. government's official web portal to all federal, state and local government web resources and services.